TimeMST,TemperatureF,Dew PointF,Humidity,Sea Level PressureIn,VisibilityMPH,Wind Direction,Wind SpeedMPH,Gust SpeedMPH,PrecipitationIn,Events,Conditions,WindDirDegrees,DateUTC
12:33 AM,28.9,25.0,85,29.66,4.0,WSW,46.0,55.2,0.00,Snow,Light Snow,240,2013-02-21 07:33:00
12:38 AM,28.9,25.0,85,29.68,1.8,WSW,41.4,55.2,0.00,Snow,Light Snow,250,2013-02-21 07:38:00
12:48 AM,28.4,26.6,93,29.69,1.5,WSW,33.4,47.2,0.00,Snow,Light Snow,240,2013-02-21 07:48:00
12:51 AM,28.0,26.1,92,29.62,2.5,WSW,33.4,44.9,0.00,Snow,Light Snow,240,2013-02-21 07:51:00
12:59 AM,28.0,26.1,92,29.69,5.0,WSW,32.2,47.2,0.00,,Overcast,240,2013-02-21 07:59:00
1:02 AM,28.0,26.1,92,29.69,1.5,WSW,31.1,47.2,0.00,,Overcast,240,2013-02-21 08:02:00
1:08 AM,28.0,27.0,96,29.69,0.2,WSW,29.9,40.3,0.00,Fog,Light Freezing Fog,240,2013-02-21 08:08:00
1:51 AM,28.0,27.0,96,29.60,0.2,WSW,32.2,41.4,0.00,Fog,Light Freezing Fog,240,2013-02-21 08:51:00
2:02 AM,27.0,26.1,96,29.65,1.0,SW,31.1,42.6,N/A,,Mist,230,2013-02-21 09:02:00
2:05 AM,27.0,26.1,96,29.65,4.0,WSW,34.5,42.6,N/A,,Mostly Cloudy,240,2013-02-21 09:05:00
2:15 AM,27.0,24.1,89,29.66,10.0,WSW,35.7,48.3,N/A,,Scattered Clouds,240,2013-02-21 09:15:00
2:47 AM,26.6,21.2,80,29.68,10.0,WSW,42.6,49.5,N/A,,Mostly Cloudy,240,2013-02-21 09:47:00
2:51 AM,27.0,21.9,81,29.60,10.0,WSW,40.3,49.5,N/A,,Mostly Cloudy,240,2013-02-21 09:51:00
3:32 AM,27.0,23.0,85,29.68,10.0,WSW,38.0,44.9,N/A,,Overcast,240,2013-02-21 10:32:00
3:51 AM,27.0,23.0,85,29.59,10.0,WSW,38.0,48.3,N/A,,Mostly Cloudy,240,2013-02-21 10:51:00
4:18 AM,27.0,21.9,81,29.68,10.0,WSW,36.8,50.6,N/A,,Mostly Cloudy,240,2013-02-21 11:18:00
4:51 AM,27.0,21.0,78,29.67,10.0,WSW,32.2,41.4,N/A,,Scattered Clouds,240,2013-02-21 11:51:00
5:18 AM,27.0,19.9,75,29.72,10.0,WSW,33.4,41.4,N/A,,Mostly Cloudy,250,2013-02-21 12:18:00
5:51 AM,26.1,19.0,75,29.69,10.0,WSW,35.7,47.2,N/A,,Mostly Cloudy,250,2013-02-21 12:51:00
6:11 AM,25.0,19.0,78,29.73,10.0,WSW,34.5,42.6,N/A,,Scattered Clouds,250,2013-02-21 13:11:00
6:51 AM,27.0,18.0,69,29.77,8.0,WSW,32.2,52.9,N/A,,Scattered Clouds,250,2013-02-21 13:51:00
7:51 AM,28.0,18.0,66,29.78,8.0,WSW,36.8,50.6,N/A,,Clear,240,2013-02-21 14:51:00
8:51 AM,30.9,19.0,61,29.78,8.0,WSW,41.4,52.9,N/A,,Clear,250,2013-02-21 15:51:00
9:51 AM,34.0,19.9,56,29.83,9.0,WSW,41.4,48.3,N/A,,Clear,240,2013-02-21 16:51:00
10:51 AM,37.0,21.0,52,29.84,9.0,WSW,38.0,47.2,N/A,,Partly Cloudy,240,2013-02-21 17:51:00
11:51 AM,39.9,21.9,49,29.84,9.0,WSW,41.4,47.2,N/A,,Clear,240,2013-02-21 18:51:00
12:51 PM,43.0,21.9,43,29.83,9.0,WSW,34.5,44.9,N/A,,Clear,240,2013-02-21 19:51:00
1:51 PM,45.0,21.0,39,29.81,9.0,WSW,42.6,49.5,N/A,,Clear,250,2013-02-21 20:51:00
2:51 PM,44.1,19.9,38,29.77,9.0,WSW,43.7,55.2,N/A,,Clear,250,2013-02-21 21:51:00
3:51 PM,44.1,19.0,37,29.78,9.0,WSW,41.4,52.9,N/A,,Clear,240,2013-02-21 22:51:00
4:51 PM,43.0,17.1,35,29.80,9.0,WSW,32.2,40.3,N/A,,Clear,240,2013-02-21 23:51:00
5:51 PM,39.9,18.0,41,29.83,9.0,WSW,33.4,42.6,N/A,,Clear,240,2013-02-22 00:51:00
6:51 PM,37.9,19.0,47,29.87,10.0,WSW,32.2,40.3,N/A,,Clear,240,2013-02-22 01:51:00
7:51 PM,37.0,19.9,50,29.89,10.0,WSW,23.0,31.1,N/A,,Clear,250,2013-02-22 02:51:00
8:51 PM,36.0,19.0,50,29.91,10.0,WSW,19.6,-,N/A,,Clear,240,2013-02-22 03:51:00
9:51 PM,35.1,19.9,54,29.91,10.0,WSW,21.9,-,N/A,,Clear,240,2013-02-22 04:51:00
10:51 PM,33.1,19.9,59,29.91,10.0,WSW,21.9,-,N/A,,Clear,240,2013-02-22 05:51:00
11:51 PM,30.9,21.0,67,29.91,10.0,WSW,19.6,-,N/A,,Clear,250,2013-02-22 06:51:00